Regional Weather Roundup
Issued by NWS

Home | Current Version | Previous Version | Text Only | Print | Product List | Glossary On
Versions: 1 2 3 4 5 6 7 8 9 10 11 12 13 14 15 16 17 18 19 20 21 22 23 24 25 26 27 28 29 30 31 32 33 34 35 36 37 38 39 40 41 42 43 44 45 46 47 48
000
ASCA42 TJSJ 281510
RWRPR
PUERTO RICO/U.S. VIRGIN ISLANDS HOURLY WEATHER ROUNDUP
NATIONAL WEATHER SERVICE SAN JUAN PR
1100 AM AST FRI AUG 28 2015

PRZ001-004-281600-
PUERTO RICO

CITY           SKY/WX    TMP DP  RH WIND       PRES   REMARKS
SAN JUAN LMM   CLOUDY    79  72  78 S3        30.02R
MAYAGUEZ       PTSUNNY   84  72  65 SW13      29.99
AGUADILLA      CLOUDY    86  68  54 SE17G26   30.00R
$$

PRZ006-007-281600-
U.S. VIRGIN ISLANDS

CITY           SKY/WX    TMP DP  RH WIND       PRES   REMARKS
CHARLOTTE AMA  SUNNY     88  77  70 E17G29    30.02S HX 100
CHRISTIANSTED  PTSUNNY   88  79  74 E20G26    30.03R HX 102
$$

HOURLY WEATHER ROUNDUP FOR THE NEWS MEDIA

CITY           SKY/WX    TMP DP  RH WIND       PRES   REMARKS
ORLANDO        SUNNY     84  75  74 CALM      30.05R HX  92
NEW YORK       MOSUNNY   75  53  46 VRB3      30.19S
NEWARK         MOSUNNY   77  52  41 W7        30.19S
CHICAGO        CLOUDY    70  59  68 SW6       30.15R
HARTFORD       SUNNY     74  57  55 VRB5      30.14S
BOSTON         MOSUNNY   71  56  58 SE5       30.16R
DALLAS         MOSUNNY   80  63  55 S12       30.02S
PHILADELPHIA   SUNNY     77  51  40 NW5       30.21R
LOS ANGELES    MOSUNNY   76  66  71 CALM      29.90R
WASHINGTON DC  MOSUNNY   75  56  51 CALM      30.23R



USA.gov is the U.S. government's official web portal to all federal, state and local government web resources and services.